Weather History for Lakeville, MN

Change the Weather History Date:

Thursday, June 5, 2014

  Actual Average Record
Temperature  
Mean Temperature 67 °F -  
Max Temperature 77 °F 78 °F 97 °F (1968)
Min Temperature 57 °F 54 °F 42 °F (1951)
Cooling Degree Days 2    
Growing Degree Days 17 (Base 50)    
Moisture  
Dew Point 56 °F    
Average Humidity 73    
Maximum Humidity 94    
Minimum Humidity 41    
Precipitation  
Precipitation 0.01 in - - ()
Sea Level Pressure  
Sea Level Pressure 29.90 in    
Wind  
Wind Speed 4 mph (SSW)    
Max Wind Speed 16 mph    
Max Gust Speed 23 mph    
Visibility 10 miles    
Events Rain , Thunderstorm    
Averages and records for this station are not official NWS values.
T = Trace of Precipitation, MM = Missing Value Source: NWS Daily Summary

Daily Weather History Graph

Daily Weather History Graph

Search for Another Location

Airport:

Trip Planner

Search our weather history database for the weather conditions in past years. The results will help you decide how hot, cold, wet, or windy it might be!

Date:

Astronomy

Jun. 05, 2014 Rise Set
Actual Time 5:28 AM CDT 8:54 PM CDT
Civil Twilight 4:52 AM CDT 9:30 PM CDT
Nautical Twilight 4:05 AM CDT 10:18 PM CDT
Astronomical Twilight 3:04 AM CDT 11:19 PM CDT
Moon 12:59 PM CDT (6/5) 1:09 AM CDT (6/5)
Length of Visible Light 16h 37m
Length of Day
15h 25m
Waxing Crescent, 49% of the Moon is Illuminated
Jun 5
Waxing Crescent
Jun 5
First Quarter
Jun 12
Full
Jun 19
Last Quarter
Jun 27
New

Hourly Weather History & Observations

Time (CDT) Temp. Dew Point Humidity Pressure Visibility Wind Dir Wind Speed Gust Speed Precip Events Conditions
12:13 AM 62.6 °F 57.2 °F 82% 29.91 in 10.0 mi Calm Calm - N/A   Scattered Clouds
12:34 AM 62.6 °F 55.4 °F 77% 29.91 in 10.0 mi Calm Calm - N/A   Clear
12:54 AM 62.6 °F 55.4 °F 77% 29.91 in 10.0 mi Calm Calm - N/A   Clear
1:13 AM 62.6 °F 55.4 °F 77% 29.90 in 10.0 mi Calm Calm - N/A   Clear
1:34 AM 60.8 °F 57.2 °F 88% 29.91 in 10.0 mi Calm Calm - N/A   Clear
1:54 AM 60.8 °F 55.4 °F 82% 29.91 in 10.0 mi Calm Calm - N/A   Clear
2:14 AM 59.0 °F 55.4 °F 88% 29.92 in 10.0 mi SSE 3.5 mph - N/A   Clear
2:34 AM 59.0 °F 55.4 °F 88% 29.93 in 10.0 mi Calm Calm - N/A   Clear
2:54 AM 60.8 °F 57.2 °F 88% 29.93 in 10.0 mi Calm Calm - N/A   Clear
3:14 AM 60.8 °F 57.2 °F 88% 29.93 in 10.0 mi Calm Calm - N/A   Clear
3:34 AM 60.8 °F 57.2 °F 88% 29.93 in 10.0 mi Calm Calm - N/A   Clear
3:53 AM 60.8 °F 57.2 °F 88% 29.92 in 10.0 mi Calm Calm - N/A   Clear
4:14 AM 60.8 °F 57.2 °F 88% 29.92 in 10.0 mi South 3.5 mph - N/A   Clear
4:34 AM 60.8 °F 57.2 °F 88% 29.92 in 10.0 mi Calm Calm - N/A   Clear
4:53 AM 59.0 °F 57.2 °F 94% 29.92 in 10.0 mi Calm Calm - N/A   Clear
5:14 AM 57.2 °F 55.4 °F 94% 29.92 in 7.0 mi Calm Calm - N/A   Clear
5:34 AM 57.2 °F 55.4 °F 94% 29.92 in 7.0 mi SSE 3.5 mph - N/A   Clear
5:54 AM 57.2 °F 55.4 °F 94% 29.92 in 7.0 mi Calm Calm - N/A   Clear
6:14 AM 59.0 °F 57.2 °F 94% 29.91 in 7.0 mi Calm Calm - N/A   Clear
6:33 AM 60.8 °F 57.2 °F 88% 29.88 in 7.0 mi Calm Calm - N/A   Clear
6:54 AM 62.6 °F 57.2 °F 82% 29.91 in 7.0 mi South 3.5 mph - N/A   Clear
7:14 AM 62.6 °F 57.2 °F 82% 29.92 in 7.0 mi South 8.1 mph - N/A   Clear
7:33 AM 64.4 °F 57.2 °F 77% 29.93 in 10.0 mi South 9.2 mph - N/A   Scattered Clouds
7:54 AM 64.4 °F 57.2 °F 77% 29.93 in 10.0 mi South 6.9 mph - N/A   Scattered Clouds
8:14 AM 66.2 °F 59.0 °F 78% 29.93 in 10.0 mi South 9.2 mph - N/A   Clear
8:34 AM 68.0 °F 59.0 °F 73% 29.92 in 10.0 mi South 11.5 mph 17.3 mph N/A   Clear
8:54 AM 69.8 °F 59.0 °F 68% 29.91 in 10.0 mi South 9.2 mph - N/A   Clear
9:14 AM 69.8 °F 57.2 °F 64% 29.91 in 10.0 mi SSW 9.2 mph 17.3 mph N/A   Clear
9:34 AM 71.6 °F 57.2 °F 60% 29.91 in 10.0 mi South 10.4 mph - N/A   Clear
9:54 AM 71.6 °F 57.2 °F 60% 29.90 in 10.0 mi South 11.5 mph - N/A   Clear
10:14 AM 71.6 °F 55.4 °F 57% 29.89 in 10.0 mi South 12.7 mph 20.7 mph N/A   Clear
10:33 AM 73.4 °F 55.4 °F 53% 29.88 in 10.0 mi South 10.4 mph 19.6 mph N/A   Clear
10:54 AM 73.4 °F 53.6 °F 50% 29.89 in 10.0 mi South 16.1 mph 23.0 mph N/A   Clear
11:14 AM 73.4 °F 53.6 °F 50% 29.89 in 10.0 mi South 13.8 mph 21.9 mph N/A   Clear
11:34 AM 75.2 °F 53.6 °F 47% 29.88 in 10.0 mi South 12.7 mph 21.9 mph N/A   Clear
11:54 AM 75.2 °F 53.6 °F 47% 29.88 in 10.0 mi South 13.8 mph 17.3 mph N/A   Clear
12:13 PM 75.2 °F 51.8 °F 44% 29.88 in 10.0 mi South 12.7 mph 19.6 mph N/A   Clear
12:34 PM 77.0 °F 51.8 °F 41% 29.89 in 10.0 mi South 12.7 mph 20.7 mph N/A   Clear
12:54 PM 75.2 °F 51.8 °F 44% 29.89 in 10.0 mi SSW 10.4 mph 18.4 mph N/A   Scattered Clouds
1:13 PM 75.2 °F 51.8 °F 44% 29.89 in 10.0 mi SSW 8.1 mph 20.7 mph N/A   Scattered Clouds
1:34 PM 75.2 °F 51.8 °F 44% 29.90 in 10.0 mi WSW 8.1 mph 18.4 mph N/A   Scattered Clouds
1:53 PM 73.4 °F 51.8 °F 47% 29.90 in 10.0 mi SW 5.8 mph 16.1 mph N/A   Scattered Clouds
2:14 PM 73.4 °F 51.8 °F 47% 29.91 in 10.0 mi WSW 10.4 mph 18.4 mph N/A   Scattered Clouds
2:34 PM 73.4 °F 51.8 °F 47% 29.91 in 10.0 mi WSW 6.9 mph - N/A   Scattered Clouds
2:53 PM 68.0 °F 57.2 °F 68% 29.92 in 10.0 mi West 13.8 mph 18.4 mph N/A Rain Light Rain
3:14 PM 66.2 °F 57.2 °F 73% 29.92 in 10.0 mi West 10.4 mph - N/A Rain Light Rain
3:34 PM 64.4 °F 59.0 °F 83% 29.92 in 7.0 mi WSW 8.1 mph - N/A Rain Light Rain
3:53 PM 64.4 °F 60.8 °F 88% 29.91 in 10.0 mi SW 5.8 mph - 0.01 in Rain Light Rain
4:14 PM 64.4 °F 60.8 °F 88% 29.87 in 10.0 mi South 8.1 mph - N/A Rain Light Rain
4:34 PM 64.4 °F 59.0 °F 83% 29.84 in 10.0 mi South 11.5 mph - N/A   Clear
4:53 PM 66.2 °F 59.0 °F 78% 29.85 in 10.0 mi South 11.5 mph 19.6 mph N/A   Clear
5:14 PM 68.0 °F 57.2 °F 68% 29.85 in 10.0 mi South 15.0 mph 20.7 mph N/A   Clear
5:34 PM 68.0 °F 55.4 °F 64% 29.85 in 10.0 mi South 16.1 mph 20.7 mph N/A   Clear
5:53 PM 68.0 °F 55.4 °F 64% 29.84 in 10.0 mi South 11.5 mph 16.1 mph N/A   Scattered Clouds
6:14 PM 69.8 °F 55.4 °F 60% 29.84 in 10.0 mi South 9.2 mph 16.1 mph N/A   Scattered Clouds
6:33 PM 69.8 °F 55.4 °F 60% 29.85 in 10.0 mi South 9.2 mph - N/A   Mostly Cloudy
6:54 PM 69.8 °F 55.4 °F 60% 29.84 in 10.0 mi South 9.2 mph - N/A   Mostly Cloudy
7:14 PM 68.0 °F 55.4 °F 64% 29.85 in 10.0 mi South 6.9 mph - N/A Thunderstorm Mostly Cloudy
7:33 PM 68.0 °F 55.4 °F 64% 29.86 in 10.0 mi SSW 4.6 mph - N/A   Mostly Cloudy
7:54 PM 68.0 °F 57.2 °F 68% 29.86 in 10.0 mi South 3.5 mph - N/A   Mostly Cloudy
8:14 PM 68.0 °F 57.2 °F 68% 29.86 in 10.0 mi Calm Calm - N/A   Mostly Cloudy
8:34 PM 66.2 °F 57.2 °F 73% 29.86 in 10.0 mi Calm Calm - N/A   Mostly Cloudy
8:54 PM 66.2 °F 57.2 °F 73% 29.87 in 10.0 mi Calm Calm - N/A   Mostly Cloudy
9:14 PM 64.4 °F 57.2 °F 77% 29.88 in 10.0 mi West 3.5 mph - N/A   Scattered Clouds
9:34 PM 64.4 °F 57.2 °F 77% 29.89 in 10.0 mi West 3.5 mph - N/A   Clear
9:54 PM 62.6 °F 57.2 °F 82% 29.89 in 10.0 mi Calm Calm - N/A   Scattered Clouds
10:13 PM 62.6 °F 57.2 °F 82% 29.90 in 10.0 mi Calm Calm - N/A   Mostly Cloudy
10:34 PM 62.6 °F 57.2 °F 82% 29.89 in 10.0 mi Calm Calm - N/A   Clear
10:54 PM 60.8 °F 57.2 °F 88% 29.89 in 10.0 mi Calm Calm - N/A   Clear
11:13 PM 60.8 °F 57.2 °F 88% 29.89 in 10.0 mi Calm Calm - N/A   Clear
11:34 PM 60.8 °F 57.2 °F 88% 29.89 in 10.0 mi Calm Calm - N/A   Clear
11:54 PM 59.0 °F 57.2 °F 94% 29.90 in 10.0 mi Calm Calm - N/A   Clear